Location: Perryvale
(54.4667°N, 113.3833°W)
Time: 21:55:17
(UTC+00:00)

ISS - Visible Passes

Search period start: 13 September 2024 00:00
Search period end: 23 September 2024 00:00
Orbit: 414 x 424 km, 51.6° (Epoch: 13 September)

Date Brightness Start Highest point End Pass type
(mag) Time Alt. Az. Time Alt. Az. Time Alt. Az.
13 Sep -2.0 03:59:21 10° SW 04:00:51 20° SSW 04:00:51 20° SSW visible
14 Sep -2.4 03:12:17 10° SSW 03:14:57 22° SSE 03:15:38 20° SE visible
14 Sep -1.1 04:48:02 10° WSW 04:48:36 14° WSW 04:48:36 14° WSW visible
15 Sep -1.9 02:25:22 10° S 02:27:36 17° SSE 02:29:49 10° ESE visible
15 Sep -2.9 04:00:37 10° WSW 04:03:09 36° SSW 04:03:09 36° SSW visible
16 Sep -3.0 03:13:13 10° SW 03:16:19 35° SSE 03:17:32 26° ESE visible
16 Sep -1.3 04:49:32 10° WSW 04:50:29 17° WSW 04:50:29 17° WSW visible
17 Sep -2.6 02:25:52 10° SW 02:28:47 28° SSE 02:31:44 10° E visible
17 Sep -3.2 04:01:56 10° WSW 04:04:43 46° SSW 04:04:43 46° SSW visible
18 Sep -3.4 03:14:19 10° WSW 03:17:34 48° S 03:18:50 30° ESE visible
18 Sep -1.2 04:50:52 10° W 04:51:46 17° W 04:51:46 17° W visible
19 Sep -3.1 02:26:41 10° WSW 02:29:52 41° SSE 02:32:51 11° E visible
19 Sep -3.0 04:03:07 10° W 04:05:47 43° SW 04:05:47 43° SW visible
20 Sep -3.5 03:15:21 10° WSW 03:18:38 53° S 03:19:44 35° SE visible
20 Sep -0.9 04:52:03 10° W 04:52:40 14° W 04:52:40 14° W visible
21 Sep -3.4 02:27:33 10° WSW 02:30:49 51° S 02:33:37 13° E visible
21 Sep -2.5 04:04:09 10° W 04:06:32 33° SW 04:06:32 33° SW visible
22 Sep -3.2 03:16:14 10° W 03:19:28 46° S 03:20:22 36° SE visible
22 Sep -0.6 04:53:12 10° W 04:53:17 10° W 04:53:17 10° W visible
